{"data":{"norad_id":45404,"intl_designator":"2020-019AW","name":"STARLINK-1260","alt_names":[],"object_type":"PAYLOAD","status":"ACTIVE","operator":null,"country":"US","launch_date":"2020-03-18","launch_site_code":"AFETR","launch_vehicle":null,"mission":null,"orbit_class":"UNKNOWN","rcs_meters":null,"size_class":null,"mass_kg":null,"dimensions":null,"purposes":["comms"],"wikipedia_slug":null,"has_3d_model":false,"image_url":null,"decayed_at":null,"tle_current":{"epoch":"2026-05-24T23:20:23.498016Z","epoch_age_seconds":76751,"freshness":"FRESH","line1":"1 45404U 20019AW  26144.97249419  .00038952  00000+0  10926-2 0  9997","line2":"2 45404  53.1557 133.3494 0005958  37.1317 323.0098 15.36212004341671","mean_motion":15.36212004,"eccentricity":0.0005958,"inclination_deg":53.1557,"raan_deg":133.3494,"arg_perigee_deg":37.1317,"mean_anomaly_deg":323.0098,"bstar":0.0010926,"rev_number":34167,"period_min":93.737062088469,"perigee_km":453.25030993127,"apogee_km":461.39544392061,"semimajor_km":6835.4598769259,"source":"CELESTRAK","updated_at":"2026-05-25T13:38:16.418679Z"}}}